FW4624 Weather Reports


time (UTC)temp
C
wind
direction
speed
KPH
gust
KPH
rain 1hr
cm
rain 24hr
cm
rain mn
cm
humidity
%
barometer
mb
20260506051015 12 200 1.6 8.0 0.00 1.42 1.19 94 1005.5
20260506050515 12 201 1.6 8.0 0.00 1.42 1.19 94 1005.5
20260506045013 12 201 3.2 6.4 0.00 1.42 1.19 95 1005.5
20260506044519 12 202 3.2 6.4 0.00 1.42 1.19 95 1005.7
20260506044013 12 203 3.2 8.0 0.00 1.42 1.19 95 1005.6
20260506043515 12 203 1.6 6.4 0.00 1.42 1.19 94 1005.6
20260506043019 12 204 1.6 8.0 0.00 1.42 1.19 94 1005.6
20260506042514 12 204 1.6 8.0 0.00 1.42 1.19 95 1005.6
20260506042013 12 204 1.6 6.4 0.00 1.42 1.19 95 1005.6
20260506041516 12 204 3.2 9.7 0.00 1.42 1.19 95 1005.6
20260506041015 12 203 4.8 12.9 0.00 1.42 1.19 95 1005.6
20260506040514 12 205 4.8 12.9 0.00 1.42 1.19 95 1005.6
20260506040012 12 198 4.8 12.9 0.00 1.42 1.19 95 1005.6
20260506035511 12 194 4.8 12.9 0.00 1.42 1.19 95 1005.6
20260506035013 12 194 6.4 12.9 0.00 1.42 1.19 95 1005.6
20260506034511 12 200 4.8 11.3 0.00 1.42 1.19 94 1005.6
20260506034010 12 198 4.8 11.3 0.00 1.42 1.19 94 1005.6
20260506033509 12 200 4.8 12.9 0.00 1.42 1.19 94 1005.6
20260506033009 12 213 6.4 12.9 0.00 1.42 1.19 94 1005.6
20260506032508 12 215 4.8 11.3 0.00 1.42 1.19 94 1005.5
20260506032007 12 202 4.8 11.3 0.00 1.42 1.19 94 1005.5
20260506031507 12 216 6.4 11.3 0.03 1.42 1.19 94 1005.6
20260506031006 12 205 6.4 11.3 0.05 1.42 1.19 94 1005.6
20260506030506 12 193 4.8 11.3 0.05 1.42 1.19 95 1005.5
20260506030005 12 211 6.4 11.3 0.05 1.42 1.19 95 1005.6
20260506025505 12 209 4.8 9.7 0.05 1.42 1.19 95 1005.6
20260506025004 12 221 4.8 9.7 0.05 1.42 1.19 95 1005.6
20260506024505 12 227 4.8 8.0 0.05 1.42 1.19 95 1005.7
20260506024005 12 227 3.2 8.0 0.05 1.42 1.19 95 1005.6
20260506023504 12 231 4.8 8.0 0.05 1.42 1.19 95 1005.6
20260506023002 12 233 4.8 8.0 0.05 1.42 1.19 95 1005.6
20260506022502 12 234 4.8 8.0 0.05 1.42 1.19 94 1005.7
20260506022002 12 234 3.2 9.7 0.05 1.42 1.19 94 1005.6
20260506021503 12 234 1.6 9.7 0.05 1.42 1.17 94 1005.6
20260506021004 12 202 0.0 6.4 0.00 1.40 1.14 94 1005.7
20260506020505 12 202 1.6 6.4 0.00 1.40 1.14 94 1005.6
20260506020002 12 201 1.6 8.0 0.03 1.40 1.14 94 1005.6
20260506015503 12 201 3.2 6.4 0.03 1.40 1.14 94 1005.7
20260506015003 12 202 1.6 4.8 0.05 1.40 1.14 94 1005.5
20260506014501 12 202 0.0 4.8 0.10 1.40 1.14 94 1005.5
20260506014002 12 203 0.0 4.8 0.15 1.40 1.14 94 1005.7
20260506013600 12 203 1.6 3.2 0.18 1.40 1.14 94 1005.7
20260506013106 12 203 0.0 4.8 0.23 1.40 1.14 94 1005.8
20260506012559 12 203 1.6 4.8 0.30 1.40 1.14 94 1005.9
20260506012101 12 203 0.0 4.8 0.36 1.40 1.14 94 1006.0
20260506011623 12 203 0.0 3.2 0.41 1.40 1.14 94 1005.9
20260506011058 12 203 0.0 1.6 0.51 1.40 1.14 94 1005.9
20260506010558 12 203 0.0 1.6 0.66 1.40 1.14 94 1005.9
20260506010119 12 203 0.0 3.2 0.89 1.37 1.12 94 1005.9
20260506005558 12 203 1.6 3.2 1.07 1.37 1.12 94 1006.0
20260506005101 12 203 1.6 3.2 1.07 1.35 1.09 94 1006.0
20260506004557 12 203 1.6 3.2 1.04 1.30 1.04 94 1005.9
20260506004056 12 203 0.0 3.2 0.99 1.27 0.99 94 1006.0
20260506003556 12 203 0.0 0.0 0.94 1.19 0.94 94 1006.0
20260506003057 12 203 0.0 1.6 0.89 1.17 0.89 94 1006.0
20260506002554 12 203 0.0 3.2 0.84 1.09 0.84 94 1006.1
20260506002053 12 203 0.0 3.2 0.79 1.04 0.79 94 1006.2
20260506001556 12 203 0.0 4.8 0.71 0.99 0.71 94 1006.3
20260506001051 12 203 1.6 4.8 0.61 0.89 0.61 94 1006.3
20260506000550 13 203 0.0 9.7 0.48 0.71 0.48 94 1006.4
20260506000057 13 203 3.2 9.7 0.23 0.51 0.23 94 1006.5
20260505235549 13 224 4.8 11.3 0.05 0.33 0.05 94 1006.5
20260505235049 13 247 3.2 6.4 0.03 0.28 0.03 94 1006.4
20260505234549 13 248 3.2 4.8 0.00 0.25 0.00 94 1006.5
20260505234047 13 248 1.6 4.8 0.00 0.25 0.00 94 1006.5
20260505233547 13 248 3.2 6.4 0.00 0.25 0.00 94 1006.6
20260505233047 13 248 3.2 6.4 0.00 0.25 0.00 94 1006.5
20260505232548 13 250 1.6 6.4 0.00 0.25 0.00 94 1006.5
20260505232046 13 250 3.2 6.4 0.00 0.25 0.00 94 1006.5
20260505231546 13 251 1.6 6.4 0.00 0.25 0.00 94 1006.5
20260505231045 13 251 3.2 6.4 0.00 0.25 0.00 94 1006.5
20260505230546 13 251 1.6 4.8 0.00 0.25 0.00 94 1006.6
20260505230045 13 251 1.6 4.8 0.00 0.25 0.00 94 1006.6
20260505225545 13 251 1.6 4.8 0.00 0.25 0.00 94 1006.6
20260505225045 13 251 0.0 6.4 0.00 0.25 0.00 94 1006.7
20260505224544 13 251 1.6 6.4 0.00 0.25 0.00 94 1006.7
20260505224043 13 251 1.6 4.8 0.00 0.25 0.00 94 1006.7
20260505223546 13 251 1.6 4.8 0.00 0.25 0.00 94 1006.7
20260505223042 13 251 0.0 3.2 0.00 0.25 0.00 94 1006.7
20260505222541 13 251 0.0 1.6 0.00 0.25 0.00 94 1006.8
20260505222041 13 251 0.0 3.2 0.00 0.25 0.00 94 1006.8
20260505221546 13 251 0.0 3.2 0.00 0.25 0.00 94 1006.9
20260505221040 13 251 0.0 3.2 0.00 0.25 0.00 94 1006.9
20260505220539 13 251 0.0 3.2 0.00 0.25 0.00 94 1006.9
20260505220053 13 251 0.0 3.2 0.00 0.25 0.00 94 1006.9
20260505215541 13 251 0.0 0.0 0.00 0.25 0.25 94 1007.0
20260505215039 13 251 0.0 0.0 0.00 0.25 0.25 94 1007.0
20260505214546 13 251 0.0 0.0 0.00 0.25 0.25 94 1006.9
20260505214039 13 251 0.0 0.0 0.00 0.25 0.25 94 1007.1
20260505213539 13 251 0.0 0.0 0.00 0.25 0.25 94 1007.1
20260505213040 13 251 0.0 0.0 0.00 0.25 0.25 94 1007.1
20260505212538 13 251 0.0 0.0 0.00 0.25 0.25 93 1007.0
20260505212038 13 251 0.0 0.0 0.03 0.25 0.25 94 1007.1
20260505211540 13 251 0.0 0.0 0.03 0.25 0.25 94 1007.1
20260505211037 13 251 0.0 0.0 0.03 0.25 0.25 94 1007.1
20260505210537 13 251 0.0 0.0 0.03 0.25 0.25 94 1007.1
20260505210045 13 251 0.0 0.0 0.03 0.25 0.25 94 1007.1
20260505205537 13 251 0.0 0.0 0.03 0.25 0.25 93 1007.1
20260505205039 13 251 0.0 0.0 0.03 0.25 0.25 93 1007.2
20260505204545 13 251 0.0 0.0 0.03 0.25 0.25 93 1007.2
20260505204039 13 251 0.0 0.0 0.03 0.25 0.25 93 1007.2
20260505203537 13 251 0.0 0.0 0.03 0.25 0.25 93 1007.2
20260505203036 13 251 0.0 0.0 0.03 0.25 0.25 93 1007.3
20260505202536 13 251 0.0 0.0 0.03 0.25 0.25 93 1007.2
20260505202036 13 251 0.0 0.0 0.00 0.23 0.23 93 1007.2
20260505201538 13 251 0.0 0.0 0.00 0.23 0.23 93 1007.3
20260505201036 13 251 0.0 0.0 0.00 0.23 0.23 93 1007.2
20260505200536 13 251 0.0 0.0 0.00 0.23 0.23 93 1007.2
20260505200036 13 251 0.0 0.0 0.00 0.23 0.23 93 1007.2
20260505195536 13 251 0.0 0.0 0.00 0.23 0.23 93 1007.1
20260505195036 13 251 0.0 0.0 0.00 0.23 0.23 93 1007.1
20260505194535 13 251 0.0 0.0 0.00 0.23 0.23 93 1007.1
20260505194036 13 251 0.0 0.0 0.00 0.23 0.23 93 1007.2
20260505193535 13 251 0.0 0.0 0.03 0.23 0.23 93 1007.1
20260505193041 13 251 0.0 0.0 0.03 0.23 0.23 93 1007.1
20260505192534 14 251 0.0 0.0 0.03 0.23 0.23 93 1007.1
20260505192034 14 251 0.0 0.0 0.03 0.23 0.23 93 1007.2
20260505191535 14 251 0.0 0.0 0.03 0.23 0.23 93 1007.0
20260505191037 14 251 0.0 0.0 0.05 0.23 0.23 93 1007.0
20260505190538 14 251 0.0 1.6 0.05 0.23 0.23 93 1007.0
20260505190038 14 251 0.0 4.8 0.05 0.23 0.23 93 1006.9
20260505185534 14 251 0.0 4.8 0.05 0.23 0.23 93 1006.9
20260505185036 14 251 0.0 3.2 0.05 0.23 0.23 92 1007.0
20260505184533 14 251 1.6 3.2 0.05 0.23 0.23 92 1006.8
20260505184033 14 251 0.0 3.2 0.08 0.23 0.23 92 1007.0
20260505183536 15 251 0.0 3.2 0.05 0.23 0.23 92 1007.0
20260505183046 15 251 0.0 3.2 0.05 0.23 0.23 92 1007.0
20260505182533 15 251 0.0 3.2 0.05 0.23 0.23 92 1007.0
20260505182032 15 251 0.0 1.6 0.05 0.23 0.23 92 1007.1
20260505181532 15 251 0.0 0.0 0.08 0.23 0.23 92 1007.1
20260505181032 15 251 0.0 1.6 0.05 0.20 0.20 91 1007.1
20260505180533 15 251 0.0 1.6 0.05 0.20 0.20 91 1007.1
20260505180032 15 251 0.0 3.2 0.05 0.20 0.20 91 1007.1
20260505175534 15 251 0.0 3.2 0.05 0.18 0.18 91 1007.1
20260505175032 15 251 0.0 3.2 0.05 0.18 0.18 90 1007.1
20260505174532 15 251 0.0 0.0 0.05 0.18 0.18 90 1007.1
20260505174032 15 251 0.0 3.2 0.05 0.15 0.15 90 1007.1
20260505173531 15 251 0.0 4.8 0.05 0.15 0.15 90 1007.1
20260505173031 15 251 1.6 4.8 0.05 0.15 0.15 90 1007.1
20260505172530 15 251 0.0 4.8 0.05 0.15 0.15 90 1007.2
20260505172031 15 251 0.0 4.8 0.05 0.15 0.15 90 1007.1
20260505171530 15 251 0.0 1.6 0.05 0.15 0.15 90 1007.1
20260505171030 15 251 0.0 1.6 0.05 0.15 0.15 90 1007.2
20260505170529 15 251 0.0 1.6 0.05 0.15 0.15 90 1007.2
20260505170031 15 251 0.0 3.2 0.05 0.15 0.15 90 1007.2
20260505165529 15 251 1.6 3.2 0.03 0.13 0.13 90 1007.2
20260505165029 15 251 0.0 1.6 0.05 0.13 0.13 90 1007.2
20260505164545 15 251 0.0 3.2 0.05 0.13 0.13 90 1007.2
20260505164029 15 251 0.0 3.2 0.05 0.13 0.13 90 1007.2
20260505163530 15 251 0.0 1.6 0.05 0.13 0.13 90 1007.3
20260505163029 15 251 0.0 4.8 0.05 0.10 0.10 90 1007.3
20260505162528 15 251 0.0 6.4 0.05 0.10 0.10 90 1007.3
20260505162028 15 251 1.6 6.4 0.08 0.10 0.10 90 1007.3
20260505161530 15 251 0.0 3.2 0.08 0.10 0.10 90 1007.4
20260505161029 15 251 0.0 6.4 0.08 0.10 0.10 90 1007.3
20260505160528 15 250 0.0 6.4 0.08 0.10 0.10 90 1007.4
20260505153027 15 234 12.9 20.9 0.05 0.05 0.05 88 1007.4
20260505152526 15 245 12.9 25.7 0.05 0.05 0.05 87 1007.3
20260505152026 15 247 16.1 27.4 0.03 0.03 0.03 86 1007.2
20260505151526 16 205 17.7 27.4 0.03 0.03 0.03 86 1007.3
20260505151026 16 243 17.7 29.0 0.03 0.03 0.03 84 1007.2
20260505150526 16 237 14.5 32.2 0.03 0.03 0.03 81 1007.2
20260505140521 21 167 1.6 8.0 0.00 0.00 0.00 56 1006.8
20260505125016 21 152 0.0 4.8 0.00 0.00 0.00 59 1007.6
20260505124523 20 152 1.6 4.8 0.00 0.00 0.00 57 1007.6
20260505124015 21 152 1.6 4.8 0.00 0.00 0.00 57 1007.6
20260505123515 21 152 1.6 8.0 0.00 0.00 0.00 56 1007.6
20260505123014 21 152 3.2 8.0 0.00 0.00 0.00 54 1007.7
20260505122514 21 151 0.0 3.2 0.00 0.00 0.00 53 1007.8
20260505122017 21 151 1.6 3.2 0.00 0.00 0.00 53 1007.7
20260505121515 21 151 1.6 3.2 0.00 0.00 0.00 54 1007.8
20260505121015 21 151 0.0 4.8 0.00 0.00 0.00 56 1007.9
20260505120513 21 151 1.6 9.7 0.00 0.00 0.00 52 1007.9
20260505120012 21 151 1.6 4.8 0.00 0.00 0.00 54 1007.9
20260505115511 21 151 1.6 8.0 0.00 0.00 0.00 54 1008.0
20260505115012 21 151 3.2 8.0 0.00 0.00 0.00 53 1008.0
20260505114510 22 153 0.0 4.8 0.00 0.00 0.00 54 1008.1
20260505114009 21 153 1.6 8.0 0.00 0.00 0.00 56 1008.2
20260505113508 21 153 3.2 9.7 0.00 0.00 0.00 54 1008.2
20260505113007 21 150 3.2 9.7 0.00 0.00 0.00 55 1008.3
20260505112507 21 127 3.2 6.4 0.00 0.00 0.00 56 1008.4
20260505112007 21 120 1.6 9.7 0.00 0.00 0.00 57 1008.3
20260505111506 21 132 1.6 8.0 0.00 0.00 0.00 56 1008.4
20260505111010 21 131 3.2 8.0 0.00 0.00 0.00 56 1008.5
20260505110506 21 135 1.6 8.0 0.00 0.00 0.00 57 1008.6
20260505102002 19 138 1.6 6.4 0.00 0.00 0.00 62 1009.0
20260505101501 20 138 3.2 6.4 0.00 0.00 0.00 62 1008.9
20260505101100 20 138 1.6 6.4 0.00 0.00 0.00 59 1009.0
20260505100600 20 138 1.6 6.4 0.00 0.00 0.00 57 1009.0
20260505095558 19 140 3.2 8.0 0.00 0.00 0.00 60 1009.1
20260505095057 20 142 3.2 8.0 0.00 0.00 0.00 61 1009.1
20260505094558 20 143 3.2 6.4 0.00 0.00 0.00 62 1009.2
20260505094057 20 153 1.6 9.7 0.00 0.00 0.00 66 1009.2
20260505093557 20 153 3.2 9.7 0.00 0.00 0.00 66 1009.4
20260505093105 20 254 1.6 6.4 0.00 0.00 0.00 67 1009.4
20260505092554 20 259 1.6 6.4 0.00 0.00 0.00 64 1009.5
20260505092057 20 259 1.6 6.4 0.00 0.00 0.00 66 1009.5
20260505091553 20 259 3.2 9.7 0.00 0.00 0.00 67 1009.5
20260505091051 20 262 3.2 9.7 0.00 0.00 0.00 69 1009.7
20260505090550 19 336 1.6 6.4 0.00 0.00 0.00 71 1009.7
20260505090050 18 335 1.6 4.8 0.00 0.00 0.00 73 1009.6
20260505085549 18 336 1.6 4.8 0.00 0.00 0.00 72 1009.7
20260505085052 18 336 0.0 4.8 0.00 0.00 0.00 72 1009.8
20260505084552 18 336 0.0 4.8 0.00 0.00 0.00 74 1009.8
20260505084047 18 336 0.0 4.8 0.00 0.00 0.00 75 1009.8
20260505083544 17 336 0.0 3.2 0.00 0.00 0.00 78 1009.9
20260505083050 17 336 0.0 4.8 0.00 0.00 0.00 79 1009.9
20260505082543 17 336 1.6 6.4 0.00 0.00 0.00 78 1010.0
20260505082042 17 336 1.6 6.4 0.00 0.00 0.00 78 1009.9
20260505081547 17 336 0.0 3.2 0.00 0.00 0.00 79 1010.1
20260505081040 16 336 0.0 3.2 0.00 0.00 0.00 81 1010.1
20260505080539 16 336 1.6 3.2 0.00 0.00 0.00 79 1010.2
20260505080038 16 336 0.0 3.2 0.00 0.00 0.00 81 1010.2
20260505075537 15 336 0.0 3.2 0.00 0.00 0.00 82 1010.2
20260505075037 15 336 0.0 3.2 0.00 0.00 0.00 82 1010.2
20260505074537 15 336 0.0 3.2 0.00 0.00 0.00 82 1010.3
20260505074036 15 336 0.0 3.2 0.00 0.00 0.00 83 1010.4
20260505073536 15 336 0.0 3.2 0.00 0.00 0.00 84 1010.3
20260505073036 15 336 0.0 3.2 0.00 0.00 0.00 85 1010.3
20260505072532 15 336 0.0 3.2 0.00 0.00 0.00 86 1010.3
20260505072034 15 336 0.0 3.2 0.00 0.00 0.00 86 1010.3
20260505071531 14 336 0.0 3.2 0.00 0.00 0.00 86 1010.3
20260505071031 14 336 0.0 3.2 0.00 0.00 0.00 87 1010.3
20260505070534 14 336 0.0 3.2 0.00 0.00 0.00 88 1010.2
20260505070040 14 336 0.0 4.8 0.00 0.00 0.00 88 1010.2
20260505065530 13 336 1.6 4.8 0.00 0.00 0.00 88 1010.3
20260505065029 13 336 1.6 4.8 0.00 0.00 0.00 88 1010.2
20260505064529 13 336 1.6 4.8 0.00 0.00 0.00 88 1010.3
20260505064029 13 336 1.6 4.8 0.00 0.00 0.00 89 1010.3
20260505063529 13 336 3.2 6.4 0.00 0.00 0.00 89 1010.2
20260505063033 13 336 1.6 6.4 0.00 0.00 0.00 89 1010.2
20260505062529 13 336 1.6 6.4 0.00 0.00 0.00 89 1010.2
20260505062028 13 336 1.6 6.4 0.00 0.00 0.00 89 1010.3
20260505061528 13 336 3.2 4.8 0.00 0.00 0.00 89 1010.3
20260505061028 13 336 1.6 4.8 0.00 0.00 0.00 89 1010.3
20260505060528 13 336 0.0 4.8 0.00 0.00 0.00 89 1010.3
20260505060035 13 336 1.6 6.4 0.00 0.00 0.00 90 1010.3
20260505055528 13 336 3.2 4.8 0.00 0.00 0.00 90 1010.3
20260505055028 13 336 1.6 6.4 0.00 0.00 0.00 91 1010.3
20260505054528 13 336 1.6 6.4 0.00 0.00 0.00 91 1010.3
20260505054030 13 336 1.6 6.4 0.00 0.00 0.00 91 1010.2
20260505053531 13 336 1.6 4.8 0.00 0.00 0.00 91 1010.3
20260505053035 13 336 1.6 4.8 0.00 0.00 0.00 91 1010.3